www.pogodaiklimat.ru
ПОГОДА в Аэропорту Сукарно-Хатта
Время
(UTC), дата
06 8.10
09 8.10
12 8.10
15 8.10
18 8.10
21 8.10
00 9.10
03 9.10
06 9.10
09 9.10
12 9.10
15 9.10
18 9.10
21 9.10
00 10.10
03 10.10
06 10.10
09 10.10
12 10.10
15 10.10
18 10.10
21 10.10
00 11.10
03 11.10
06 11.10
09 11.10
12 11.10
15 11.10
18 11.10
21 11.10
00 12.10
03 12.10
06 12.10
09 12.10
12 12.10
15 12.10
18 12.10
21 12.10
00 13.10
03 13.10
06 13.10
09 13.10
12 13.10
15 13.10
18 13.10
21 13.10
00 14.10
03 14.10
06 14.10
09 14.10
12 14.10
15 14.10
18 14.10
21 14.10
00 15.10
03 15.10
Ветер
(напр.,м/с)
Видим. Явления Облачность Т
(С)
Тd
(С)
f
(%)
Тe
(С)
Тes
(С)
Комфортность P
(гПа)
Po
(гПа)
Тmin
(С)
Tmax
(С)
R
(мм)
R24
(мм)
S
(см)
СВ 4 10 км 6/3 600 м
[Sc diur, vesp As op Ci fib]
+32.5 +22.0 54 +41 +49 опасность
перегрева
1009.1 1007.7
С 4 10 км 6/3 600 м
[Sc diur, vesp As op Ci fib]
+30.8 +22.7 62 +40 +42 очень
душно
1008.4 1007.0
СЗ 1 8000 м 9/3 600 м
[Sc diur, vesp As op Ci fib]
+28.8 +23.5 73 +39 +39 очень
душно
1011.4 1010.0 +33.4
З 3 5000 м слаб. дождь 10/4 600 м
[Sc diur, vesp As op]
+24.9 +23.5 92 +34 +34 очень
душно
1012.7 1011.4 5
Ю 2 5000 м мгла {дождь} 9/4 600 м
[Sc diur, vesp As op Ci fib]
+24.4 +22.9 91 +32 +32 очень
душно
1011.5 1010.2 5
Ю 2 5000 м мгла 9/4 600 м
[Sc diur, vesp As op Ci fib]
+24.8 +22.9 89 +33 +33 очень
душно
1010.9 1009.6
Ю 2 5000 м мгла 9/4 600 м
[Sc diur, vesp As op Ci fib]
+26.1 +23.4 85 +35 +36 очень
душно
1011.5 1010.2 +24.2 5
СВ 3 7000 м 9/4 600 м
[Sc As op Ci fib]
+31.3 +23.7 64 +42 +48 опасность
перегрева
1011.9 1010.6
СВ 4 9000 м 8/3 600 м
[Sc As op Ci fib]
+32.0 +22.4 57 +41 +47 опасность
перегрева
1009.6 1008.3
СВ 6 10 км 8/3 630 м
[Sc As op Ci fib]
+30.5 +22.2 61 +39 +40 очень
душно
1008.5 1007.2
СВ 3 8000 м 8/3 600 м
[Sc As op Ci fib]
+28.2 +23.7 77 +39 +39 очень
душно
1010.5 1009.1 +32.4
ЮЗ 1 4000 м мгла 8/3 600 м
[Sc As op Ci fib]
+26.7 +23.7 84 +37 +37 очень
душно
1012.0 1010.7
ЮЗ 3 4000 м мгла 8/4 600 м
[Sc As op Ci fib]
+25.5 +22.6 84 +34 +34 очень
душно
1010.6 1009.3
ЮЗ 2 5000 м мгла 8/3 600 м
[Sc As op Ci fib]
+24.6 +22.5 88 +32 +32 очень
душно
1011.1 1009.8
ЮЗ 2 5000 м мгла 8/3 600 м
[Sc As op Ci fib]
+24.9 +22.5 87 +33 +34 очень
душно
1013.0 1011.7 +24.0
ЮВ 3 5000 м мгла 8/3 600 м
[Sc diur, vesp As op Ci fib]
+30.8 +22.1 60 +40 +47 очень
душно
1013.1 1011.7
С 3 6000 м 8/4 570 м
[Sc diur, vesp As op Ci fib]
+31.7 +22.0 56 +40 +48 очень
душно
1010.2 1008.8
С 6 9000 м 8/4 570 м
[Cb cap As op Ci fib]
+30.4 +22.9 64 +40 +41 очень
душно
1008.9 1007.5
ЮЗ 2 7000 м 8/5 570 м
[Cb cap As op Ci fib]
+29.0 +22.5 68 +38 +38 очень
душно
1011.2 1009.8 +32.6
З 2 5000 м мгла 8/4 600 м
[Sc As op Ci fib]
+25.9 +22.6 82 +34 +34 очень
душно
1012.2 1010.8
Ю 2 5000 м мгла 8/4 600 м
[Sc As op Ci fib]
+26.1 +22.8 82 +35 +35 очень
душно
1011.5 1010.1
ЮЗ 2 5000 м мгла 6/3 600 м
[Sc As op Ci fib]
+25.6 +22.8 85 +34 +34 очень
душно
1011.0 1009.6
ЮЗ 2 5000 м мгла 9/5 600 м
[Sc Ac As Ci fib]
+26.1 +23.2 84 +35 +36 очень
душно
1013.1 1011.7 +24.5
ЮВ 1 8000 м 6/3 600 м
[Sc As op Ci fib]
+30.7 +22.0 60 +39 +51 опасность
солнечного
удара
1012.5 1011.2
СВ 4 7000 м 6/3 600 м
[Sc As op Ci fib]
+32.9 +23.3 57 +43 +52 опасность
перегрева
1009.7 1008.4
СВ 4 10 км 6/3 600 м
[Sc As op Ci fib]
+31.0 +22.9 62 +41 +43 опасность
перегрева
1008.4 1007.1
СВ 3 8000 м 8/3 600 м
[Sc As op Ci fib]
+28.6 +23.6 74 +39 +39 очень
душно
1010.4 1009.0 +33.2
С 1 5000 м мгла 8/3 600 м
[Sc As op Ci fib]
+26.3 +23.4 84 +36 +36 очень
душно
1011.5 1010.1
Ю 1 5000 м мгла 6/3 600 м
[Sc diur, vesp As op Ci fib]
+25.7 +22.7 84 +34 +34 очень
душно
1010.4 1009.1
ЮЗ 2 4000 м мгла 6/3 600 м
[Sc diur, vesp As op Ci fib]
+25.9 +22.7 83 +34 +34 очень
душно
1009.9 1008.6
Ю 1 6000 м мгла 6/1 630 м
[Sc diur, vesp As trans Ci fib]
+26.6 +23.3 82 +36 +37 очень
душно
1011.5 1010.1 +25.2
В 1 8000 м 8/4 630 м
[Sc diur, vesp As trans Ci fib]
+31.6 +21.5 55 +40 +48 очень
душно
1011.7 1010.3
СВ 3 8000 м 8/4 600 м
[Sc diur, vesp As op Ci fib]
+32.5 +22.0 54 +41 +48 опасность
перегрева
1009.3 1007.9
С 3 10 км 6/3 600 м
[Sc diur, vesp As op Ci fib]
+30.7 +23.3 65 +41 +44 опасность
перегрева
1008.8 1007.4
С 1 8000 м 6/3 600 м
[Sc diur, vesp As op Ci fib]
+28.3 +23.5 75 +38 +38 очень
душно
1010.7 1009.4 +32.8
ЮЗ 2 5000 м мгла 6/3 600 м
[Sc diur, vesp As op Ci fib]
+26.4 +21.5 74 +34 +34 очень
душно
1012.2 1010.9
Ю 2 4000 м мгла 6/4 600 м
[Sc diur, vesp As op Ci fib]
+24.3 +21.6 85 +31 +31 очень
душно
1010.8 1009.4
ЮЗ 2 4000 м мгла 6/3 600 м
[Sc diur, vesp As op Ci fib]
+23.6 +21.5 88 +30 +30 очень
душно
1010.1 1008.8
Ю 1 5000 м мгла 6/3 600 м
[Sc diur, vesp As op Ci fib]
+25.5 +22.0 81 +33 +34 очень
душно
1011.9 1010.6 +23.0
В 4 5000 м мгла 8/3 600 м
[Sc diur, vesp As op Ci fib]
+31.7 +23.0 60 +42 +48 опасность
перегрева
1011.7 1010.4
СВ 3 8000 м 8/3 600 м
[Sc diur, vesp As op Ci fib]
+32.8 +21.6 52 +41 +49 опасность
перегрева
1009.0 1007.7
СЗ 3 9000 м 8/3 600 м
[Sc diur, vesp As op Ci fib]
+31.8 +22.8 59 +42 +44 опасность
перегрева
1007.7 1006.4
СВ 2 6000 м 9/3 600 м
[Sc diur, vesp As op Ci fib]
+28.7 +22.0 67 +37 +37 очень
душно
1010.1 1008.8 +33.4
СВ 2 6000 м 8/3 600 м
[Sc diur, vesp As op Ci fib]
+27.2 +21.9 73 +35 +35 очень
душно
1011.6 1010.3
Ю 1 5000 м мгла 6/1 600 м
[Sc diur, vesp As op Ci fib]
+25.4 +22.2 82 +33 +33 очень
душно
1010.6 1009.3
ЮЗ 1 4000 м мгла 6/3 600 м
[Sc diur, vesp As op Ci fib]
+24.5 +22.3 88 +32 +32 очень
душно
1010.7 1009.4
ЮВ 1 5000 м мгла 6/3 600 м
[Sc diur, vesp As op Ci fib]
+26.5 +22.6 79 +35 +36 очень
душно
1012.0 1010.7 +23.4
В 4 8000 м 6/3 600 м
[Sc diur, vesp As op Ci fib]
+31.9 +22.6 58 +42 +48 опасность
перегрева
1012.3 1011.0
СВ 5 10 км 6/1 600 м
[Sc diur, vesp As op Ci fib]
+32.8 +22.2 54 +42 +50 опасность
перегрева
1009.8 1008.5
СВ 4 10 км 6/3 630 м
[Sc diur, vesp As op Ci fib]
+30.4 +22.3 62 +39 +42 очень
душно
1008.4 1007.1
СЗ 2 10 км 6/3 630 м
[Sc diur, vesp As op Ci fib]
+28.7 +23.4 73 +39 +39 очень
душно
1010.2 1008.8 +33.2
ЮВ 1 8000 м 8/4 600 м
[Sc diur, vesp As op Ci fib]
+26.6 +23.4 83 +36 +36 очень
душно
1011.9 1010.5
ЮЗ 2 7000 м 8/4 600 м
[Sc diur, vesp As op Ci fib]
+26.0 +22.4 81 +34 +34 очень
душно
1011.1 1009.7
Ю 2 7000 м 8/4 600 м
[Sc diur, vesp As op Ci fib]
+26.1 +22.3 80 +34 +34 очень
душно
1010.8 1009.4
Ю 2 6000 м 6/3 630 м
[Sc diur, vesp As op Ci fib]
+27.2 +22.8 77 +36 +37 очень
душно
1012.2 1010.8 +25.4
ЮЗ 1 9000 м 8/4 600 м
[Sc diur, vesp As op Ci fib]
+32.3 +21.0 51 +40 +48 очень
душно
1012.1 1010.8
Местоположение метеостанции Аэропорт Сукарно-Хатта (Индонезия): широта -6.12 долгота 106.65 высота над уровнем моря 8 м.
В архиве по умолчанию представлена погода в Аэропорту Сукарно-Хатта за последнюю неделю. Архивные данные за месяц целиком и за предыдущие месяцы, начиная с января 2011 года, Вы можете получить, выбрав интересующий диапазон дат из раскрывающегося списка и нажав кнопку "Найти!".
*Определитесь, кто Вы:
Внимание! Время в таблицах - всемирное. Для получения местного времени необходимо прибавить поправку, которая равна 7 ч.
Смотрите также архив погоды в соседних городах и на ближайших метеорологических станциях:
Партнеры нашего сайта:      
Пояснения к столбцам:
  • Ветер - указаны скорость ветра в м/с - средняя за 10 мин, порывы в срок и между сроками (в фигурных скобках) и направление, откуда дует ветер: С - северный,
  • СВ - северо-восточный, В - восточный, ЮВ - юго-восточный, Ю - южный, ЮЗ - юго-западный, З - западный, СЗ - северо-западный.
  • Видимость - горизонтальная дальность видимости в метрах или километрах. При видимости от 1 до 10 км при отсутствии осадков обычно наблюдается дымка, при ухудшении видимости до 1 км и менее - туман. В сухую погоду видимость может ухудшаться дымом, пылью или мглою.
  • Явления - указаны атмосферные явления, наблюдавшиеся в срок или в последний час перед сроком; фигурными скобками обозначены явления, наблюдавшиеся между сроками (за 1-3 часа до срока); квадратными скобками обозначены град или гололедные отложения с указанием их диаметра в мм.
  • Облачность - указаны через наклонную черту общая и нижняя облачность в баллах и высота нижней границы облаков в метрах; квадратными скобками обозначены формы облаков: Ci - перистые, Cs - перисто-слоистые, Cc - перисто-кучевые, Ac - высококучевые, As - высокослоистые, Sc - слоисто-кучевые, Ns - слоисто-дождевые, Cu - кучевые, Cb - кучево-дождевые. Подробнее классификацию облаков см. в Атласе облаков (PDF).
  • T - Температура воздуха - температура, измеренная на высоте 2 м над землей.
  • Td - Температура точки росы - температура, при понижении до которой содержащийся в воздухе водяной пар достигнет насыщения.
  • f - Относительная влажность воздуха - влажноcть воздуха, измеренная на высоте 2 м над землей.
  • Te - Эффективная температура - температура, которую ощущает одетый по сезону человек в тени. Характеристика душности погоды. При расчете учитывается влияние влажности воздуха и скорости ветра на теплоощущения человека.
  • Tes - Эффективная температура на солнце - температура, которую ощущает человек, с поправкой на солнечный нагрев. Характеристика знойности погоды. Зависит от высоты солнца над горизонтом, облачности и скорости ветра. Ночью, в пасмурную погоду, а также при ветре 12 м/с и более поправка равна нулю.
  • P - Атмосферное давление - приведенное к уровню моря атмосферное давление.
  • Po - Атмосферное давление - измеренное на уровне метеостанции атмосферное давление.
  • Tmin - Минимальная температура - минимум температуры воздуха на высоте 2 м над землей.
  • Tmax - Максимальная температура - максимум температуры воздуха на высоте 2 м над землей.
  • R - Количество осадков - Количество выпавших осадков за период времени, мм. При наведении курсора мыши на число - период времени, за который выпало указанное количество осадков.
  • R24 - Количество осадков - Количество выпавших осадков за 24 часа, мм.
  • S - Снежный покров - Высота снежного покрова, см. При наведении курсора мыши на число - состояние снежного покрова и степень покрытия местности в баллах.